Simultaneous Nadir Overpasses (SNOs) Predictions

Prediction of SNOs between FY3D and AQUA Satellite Orbit:

Table of predicted SNOs for the next 14.0 days since TLE Epoch: 4/29/2023
Index Date (FY3D) Time (FY3D) Lat,Lon (FY3D) SZA (FY3D ) Date (AQUA) Time (AQUA) Lat,Lon (AQUA) SZA (AQUA ) Distance(km) Time Diff (sec)
1 05/01/2023 12:19:23 -78.50, 156.51 116.06 05/01/2023 12:20:24 -78.50, 156.42 116.07 1.93 61
2 05/01/2023 13:09:58 78.07, -33.69 63.37 05/01/2023 13:09:39 78.08, -33.78 63.38 2.32 19
3 05/04/2023 02:08:14 80.32, 64.23 73.19 05/04/2023 02:09:26 81.11, 62.43 73.48 94.32 72
4 05/04/2023 02:55:38 -78.24, -61.00 117.19 05/04/2023 02:55:36 -78.24, -61.02 117.18 0.42 2
5 05/06/2023 16:41:18 78.38, -88.22 62.27 05/06/2023 16:41:32 78.38, -88.16 62.26 1.64 14
6 05/06/2023 17:31:53 -77.98, 81.38 118.27 05/06/2023 17:30:47 -77.97, 81.49 118.27 2.77 66
7 05/09/2023 06:26:55 -78.44,-114.92 118.36 05/09/2023 06:27:25 -78.44,-114.93 118.37 0.37 30
8 05/09/2023 07:17:29 78.02, 54.78 61.08 05/09/2023 07:16:39 78.02, 54.80 61.09 0.58 50
9 05/11/2023 20:12:32 78.53,-141.86 61.09 05/11/2023 20:13:17 78.54,-141.86 61.08 0.20 45



Historial Predications of SNOs between FY3D and AQUA
